TimeEDT,TemperatureF,Dew PointF,Humidity,Sea Level PressureIn,VisibilityMPH,Wind Direction,Wind SpeedMPH,Gust SpeedMPH,PrecipitationIn,Events,Conditions,WindDirDegrees,DateUTC
12:32 AM,48.2,46.4,93,29.62,6.0,SSW,3.5,-,N/A,,Mostly Cloudy,200,2013-05-16 04:32:00
12:52 AM,46.0,44.1,93,29.64,3.0,Calm,Calm,-,N/A,,Scattered Clouds,0,2013-05-16 04:52:00
12:54 AM,44.6,42.8,93,29.63,1.8,Calm,Calm,-,N/A,,Mostly Cloudy,0,2013-05-16 04:54:00
1:03 AM,46.4,42.8,87,29.63,3.0,South,3.5,-,N/A,,Mostly Cloudy,180,2013-05-16 05:03:00
1:23 AM,46.4,44.6,93,29.63,6.0,Calm,Calm,-,N/A,,Overcast,0,2013-05-16 05:23:00
1:52 AM,48.9,46.0,90,29.63,7.0,SSW,3.5,-,N/A,,Overcast,210,2013-05-16 05:52:00
2:18 AM,48.2,46.4,93,29.63,6.0,Calm,Calm,-,N/A,,Overcast,0,2013-05-16 06:18:00
2:48 AM,50.0,46.4,87,29.63,6.0,Calm,Calm,-,N/A,,Overcast,0,2013-05-16 06:48:00
2:52 AM,50.0,46.9,89,29.64,6.0,Calm,Calm,-,N/A,,Overcast,0,2013-05-16 06:52:00
3:11 AM,48.2,46.4,93,29.63,5.0,Calm,Calm,-,N/A,,Overcast,0,2013-05-16 07:11:00
3:43 AM,50.0,46.4,87,29.61,5.0,Calm,Calm,-,N/A,,Mostly Cloudy,0,2013-05-16 07:43:00
3:52 AM,48.0,46.0,93,29.62,4.0,South,3.5,-,N/A,,Scattered Clouds,190,2013-05-16 07:52:00
4:38 AM,46.4,44.6,93,29.60,1.8,Calm,Calm,-,0.01,,Clear,0,2013-05-16 08:38:00
4:43 AM,46.4,44.6,93,29.60,1.0,Calm,Calm,-,0.01,,Mist,0,2013-05-16 08:43:00
4:52 AM,45.0,43.0,93,29.62,0.5,Calm,Calm,-,0.01,Fog,Fog,0,2013-05-16 08:52:00
5:28 AM,44.6,42.8,93,29.62,0.2,Calm,Calm,-,N/A,Fog,Fog,0,2013-05-16 09:28:00
6:04 AM,44.6,42.8,93,29.63,0.2,Calm,Calm,-,N/A,Fog,Fog,0,2013-05-16 10:04:00
6:52 AM,48.0,46.0,93,29.65,1.0,Calm,Calm,-,0.00,,Mist,0,2013-05-16 10:52:00
6:56 AM,48.2,46.4,93,29.64,2.5,Calm,Calm,-,N/A,,Mostly Cloudy,0,2013-05-16 10:56:00
7:03 AM,48.2,46.4,93,29.64,2.5,Calm,Calm,-,N/A,,Scattered Clouds,0,2013-05-16 11:03:00
7:30 AM,51.8,48.2,88,29.64,7.0,Calm,Calm,-,N/A,,Clear,0,2013-05-16 11:30:00
7:52 AM,53.1,48.9,86,29.65,10.0,Calm,Calm,-,N/A,,Clear,0,2013-05-16 11:52:00
8:52 AM,59.0,45.0,60,29.65,10.0,WSW,6.9,-,N/A,,Clear,240,2013-05-16 12:52:00
9:52 AM,61.0,43.0,52,29.64,10.0,SW,8.1,-,N/A,,Clear,230,2013-05-16 13:52:00
10:52 AM,64.0,41.0,43,29.64,10.0,West,10.4,21.9,N/A,,Scattered Clouds,260,2013-05-16 14:52:00
11:52 AM,66.9,39.0,36,29.62,10.0,West,13.8,28.8,N/A,,Scattered Clouds,270,2013-05-16 15:52:00
12:52 PM,68.0,32.0,26,29.62,10.0,West,17.3,28.8,N/A,,Partly Cloudy,270,2013-05-16 16:52:00
1:52 PM,72.0,33.1,24,29.59,10.0,West,19.6,33.4,N/A,,Scattered Clouds,270,2013-05-16 17:52:00
2:52 PM,70.0,30.9,24,29.60,10.0,WNW,15.0,28.8,N/A,,Mostly Cloudy,290,2013-05-16 18:52:00
3:52 PM,69.1,33.1,26,29.61,10.0,WNW,17.3,29.9,N/A,,Mostly Cloudy,300,2013-05-16 19:52:00
4:52 PM,64.9,37.0,36,29.65,10.0,NW,11.5,-,N/A,,Overcast,320,2013-05-16 20:52:00
5:52 PM,62.1,39.0,43,29.69,10.0,NW,11.5,-,N/A,,Overcast,320,2013-05-16 21:52:00
6:52 PM,57.9,39.0,49,29.74,10.0,NW,15.0,19.6,N/A,,Overcast,320,2013-05-16 22:52:00
7:52 PM,55.0,37.9,53,29.77,10.0,NNW,9.2,-,N/A,,Overcast,330,2013-05-16 23:52:00
8:52 PM,54.0,39.0,57,29.81,10.0,NW,6.9,-,N/A,,Overcast,310,2013-05-17 00:52:00
10:52 PM,52.0,39.0,61,29.84,10.0,NNW,4.6,-,N/A,,Overcast,330,2013-05-17 02:52:00
11:52 PM,51.1,37.9,61,29.85,10.0,NW,5.8,-,N/A,,Overcast,320,2013-05-17 03:52:00